Location: Unspecified
(0.0000°N, 0.0000°E)
Time: 08:50:34
(UTC+00:00)

Vanguard 2 - Pass Details

Date: 20 October 2021
Orbit: 554 x 2936 km, 32.9° (Epoch: 06 December)

Event Time Altitude Azimuth Distance (km) Brightness Sun altitude
Rises 15:31:08 0° 230° (SW) 4,560 12.3 32.8°
Reaches altitude 10° 15:37:58 10° 196° (SSW) 4,257 11.8 31.1°
Maximum altitude 15:40:43 11° 182° (S) 4,423 11.7 30.4°
Drops below altitude 10° 15:43:45 10° 169° (SSE) 4,754 11.7 29.7°
Sets 15:53:42 0° 138° (SE) 6,409 12.0 27.2°
